Zurück zum Katalog

TOM-1

AktivWissenschaftSSO
NORAD 69872·PAYLOAD·🇹🇼 Taiwan

Gestartet Jul 7, 2026 von Vandenberg Space Force Base

Loading…

Nächste Überflüge (nächste 24 Stunden)

TLE

AktuellSource: Space-Track

Epoche: Sep 13, 2026, 16:07 UTC

1 69872U 26156D   26256.67166233  .00000983  00000-0  10553-3 0  9994
2 69872  97.7435 155.8593 0002183 228.7435 131.3595 14.90811331 10188

Verfolge TOM-1 in Echtzeit mit AllMySat

Download on the App Store